Location: ????????
(56.1167°N, 38.6333°E)
Time: 21:08:33
(UTC+00:00)

Cosmos 468 Rocket - Pass Details

Date: 18 November 2025
Orbit: 740 x 774 km, 74.0° (Epoch: 06 December)

Event Time Altitude Azimuth Distance (km) Brightness Sun altitude
Rises 14:17:14 0° 331° (NNW) 3,246 7.3 -8.8°
Reaches altitude 10° 14:19:41 10° 336° (NNW) 2,311 6.5 -9.2°
Maximum altitude 14:24:50 56° 55° (NE) 902 4.1 -9.8°
Drops below altitude 10° 14:29:55 10° 134° (SE) 2,274 6.2 -10.5°
Sets 14:32:18 0° 138° (SE) 3,190 7.0 -10.8°
